Regional Weather Roundup
Issued by NWS

Home | Current Version | Previous Version | Graphics & Text | Print | Product List | Glossary On
Versions: 1 2 3 4 5 6 7 8 9 10 11 12 13 14 15 16 17 18 19 20 21 22 23 24 25 26 27 28 29 30 31 32 33 34 35 36 37 38 39 40 41 42 43 44 45 46 47 48 49 50
300
ASUS43 KLSX 182257
RWRMO

WEATHER SUMMARY FOR MISSOURI
NATIONAL WEATHER SERVICE SPRINGFIELD MO
500 PM CST THU JAN 18 2018

NOTE: "FAIR" INDICATES FEW OR NO CLOUDS BELOW 12,000 FEET WITH NO
       SIGNIFICANT WEATHER AND/OR OBSTRUCTIONS TO VISIBILITY.
       CURRENT SKY AND/OR WEATHER CONDITIONS ARE NOT AVAILABLE FOR
       CHILLICOTHE AND FARMINGTON.

MOZ001>031-035>038-043-044-053-054-190000-
...NORTHERN AND WESTERN MISSOURI...

CITY           SKY/WX    TMP DP  RH WIND       PRES   REMARKS
KANSAS CTY INT CLOUDY    36  22  56 S17G24    30.06F WCI  26
LEE`S SUMMIT   CLEAR     37  21  52 SW10      30.10F WCI  30
ST JOSEPH      CLOUDY    37  25  61 S9        30.05F
CHILLICOTHE      N/A     37  22  54 S9        30.08S

$$
MOZ066>068-077>081-088>096-101>105-190000-
...SOUTHWEST MISSOURI...

CITY           SKY/WX    TMP DP  RH WIND       PRES   REMARKS
SPRINGFIELD    CLEAR     40  21  46 S9        30.18F
JOPLIN         CLEAR     41  22  46 SW13      30.18S
BRANSON        CLEAR     45  12  26 SW6       30.23F

$$
MOZ032>034-039>042-045>050-055>058-069>072-190000-
...CENTRAL MISSOURI...

CITY           SKY/WX    TMP DP  RH WIND       PRES   REMARKS
COLUMBIA       NOT AVBL
JEFFERSON CITY PTCLDY    44  15  31 SW9       30.16S
ROLLA          CLEAR     41  19  41 SW12      30.17F
SEDALIA        CLEAR     40  21  46 SW14G24   30.14S
WARRENSBURG    CLEAR     36  19  51 S16       30.13F WCI  26

$$
MOZ051-052-059>065-190000-
...EAST CENTRAL MISSOURI...

CITY           SKY/WX    TMP DP  RH WIND       PRES   REMARKS
ST LOUIS INTL  PTCLDY    44  14  29 SW15      30.17F

$$
MOZ072>076-082>087-097>100-106>115-190000-
...SOUTH CENTRAL AND SOUTHEAST MISSOURI...

CITY           SKY/WX    TMP DP  RH WIND       PRES   REMARKS
CAPE GIRARDEAU FAIR      27  18  69 S9        30.34F WCI  18
POPLAR BLUFF   FAIR      32  22  66 SW9       30.33F WCI  24
WEST PLAINS    CLEAR     37  13  37 S3        30.26F

$$



USA.gov is the U.S. government's official web portal to all federal, state and local government web resources and services.